Flag Weather past 2 weeks in Gaza, Gaza Strip

Now
57 °F

Rain. Passing clouds.


Feels Like: 55 °F
Forecast: 60 / 65 °F
Wind: 8 mph from South

Location: Ben Gurion International Airport

Current Time: Nov 25, 2014 at 11:05:42 PM

Latest Report: Nov 25, 2014 at 10:20 PM


Visibility: 6 mi

Pressure: 29.92 "Hg

Humidity: 94%

Dew point: 55 °F

Location of GazaLocation

Historic Weather in Gaza — Graph

°F

Gaza temperature yesterday

Maximum temperature yesterday: 61 °F (at 8:50 AM)
Minimum temperature yesterday: 55 °F (at 8:50 PM)
Average temperature yesterday: 58 °F

Past Weeks' High & Low Weather Summary

 TemperatureHumidityPressure
High81 °F (Nov 14, 11:50 AM)94% (Nov 16, 5:50 AM)30.18 "Hg (Nov 16, 5:50 AM)
Low52 °F (Nov 25, 3:20 AM)30% (Nov 19, 3:20 PM)29.86 "Hg (Nov 14, 1:20 PM)
Average65 °F71%29.98 "Hg
* Reported Nov 10 9:20 PM — Nov 25 9:50 PM, Gaza, Weather by CustomWeather, © 2014

Note: Actual official high and low records may vary slightly from our data, if they occured in-between our weather recording intervals... More about our weather records

Advertising

Gaza weather history for previous 24 hours

 ConditionsComfort  
Time TempWeatherWind HumidityBarometerVisibility
9:50 PM
Nov 25
57 °FThunderstorms. Passing clouds.10 mph94%29.92 "Hg6 mi
9:20 PM57 °FStrong thunderstorms. Passing clouds.14 mph88%29.92 "Hg4 mi
8:50 PM59 °FPartly cloudy.13 mph88%29.89 "Hg6 mi
8:20 PM59 °FRain. Partly cloudy.12 mph88%29.92 "Hg4 mi
7:50 PM59 °FLight rain. Passing clouds.8 mph88%29.92 "HgN/A
7:20 PM59 °FHeavy rain. Partly cloudy.8 mph88%29.92 "Hg4 mi
6:50 PM59 °FLight rain. Passing clouds.7 mph88%29.92 "HgN/A
6:20 PM59 °FRain. Partly cloudy.6 mph88%29.92 "HgN/A
5:50 PM57 °FRain. Passing clouds.13 mph94%29.92 "HgN/A
5:20 PM59 °FLight rain. Passing clouds.7 mph94%29.92 "HgN/A
4:50 PM59 °FLight rain. Mostly cloudy.3 mph94%29.92 "HgN/A
4:20 PM59 °FRain. Partly sunny.6 mph88%29.92 "Hg4 mi
3:50 PM59 °FHeavy rain. Partly sunny.13 mph88%29.92 "Hg3 mi
3:20 PM61 °FLight rain. More clouds than sun.9 mph88%29.92 "Hg4 mi
2:50 PM61 °FRain. More clouds than sun.10 mph83%29.92 "Hg3 mi
2:20 PM61 °FBroken clouds.8 mph83%29.92 "HgN/A
1:50 PM64 °FHeavy rain. Broken clouds.6 mph68%29.95 "Hg2 mi
1:20 PM64 °FThundershowers. Cloudy.8 mph68%29.95 "HgN/A
12:50 PM64 °FPartly sunny.14 mph68%29.95 "HgN/A
12:20 PM66 °FScattered clouds.12 mph64%29.95 "HgN/A
11:50 AM66 °FScattered clouds.12 mph64%29.95 "HgN/A
11:20 AM66 °FScattered clouds.13 mph64%29.95 "HgN/A
10:50 AM64 °FPassing clouds.10 mph68%29.98 "HgN/A
10:20 AM64 °FPassing clouds.12 mph68%29.98 "HgN/A
9:50 AM63 °FPassing clouds.10 mph73%29.98 "HgN/A
9:20 AM63 °FPassing clouds.10 mph73%29.98 "HgN/A
8:50 AM61 °FPassing clouds.10 mph72%29.98 "HgN/A
8:20 AM61 °FPassing clouds.9 mph72%29.98 "HgN/A
7:50 AM57 °FPassing clouds.8 mph82%29.98 "HgN/A
7:20 AM57 °FPassing clouds.5 mph82%29.98 "HgN/A
6:50 AM55 °FLight rain. Passing clouds.1 mph82%29.98 "HgN/A
6:20 AM54 °FPassing clouds.3 mph88%29.98 "HgN/A
5:50 AM54 °FLight rain. Passing clouds.5 mph88%29.98 "HgN/A
5:20 AM54 °FClear.5 mph88%29.95 "Hg10 mi
4:50 AM54 °FClear.6 mph82%29.95 "Hg10 mi
4:20 AM54 °FClear.7 mph82%29.95 "Hg10 mi
3:50 AM54 °FClear.7 mph88%29.95 "Hg10 mi
3:20 AM52 °FClear.7 mph88%29.95 "Hg10 mi
2:50 AM54 °FClear.6 mph88%29.95 "Hg10 mi
2:20 AM54 °FClear.5 mph88%29.98 "Hg10 mi
1:50 AM54 °FClear.3 mph88%29.98 "Hg10 mi
1:20 AM54 °FClear.6 mph94%29.95 "Hg10 mi
12:50 AM54 °FClear.6 mph88%29.95 "Hg10 mi
12:20 AM54 °FClear.2 mph94%29.98 "Hg10 mi
11:20 PM
Nov 24
55 °FCool.6 mph88%29.98 "HgN/A
Weather by CustomWeather, © 2014

See weather overviewHow to use our weather pages